sat.trackr.live / text

‹ back to catalog

STARLINK-31381

NORAD 59469 · 2024-068Q

PAYLOAD ACTIVE UNKNOWN

§ Identity

Operator
Country
US
Launch date
2024-04-10
Launch site
AFETR
Launch vehicle
Mass (kg)
RCS (m²)

Purposes: comms

External: N2YO · Heavens-Above · Gunter

§ Orbital elements

Epoch: 2026-09-21T08:08:53.396160Z

Period
94.27 min
Inclination
43.0030°
Eccentricity
0.0001168
Mean motion
15.27590293 rev/d
Perigee alt
482.2 km
Apogee alt
483.8 km
Semi-major
6,861.2 km
B*
-7.4740e-6
RAAN
6.2310°
Arg perigee
269.4101°
Mean anomaly
90.6617°
Rev number
13,848

§ Raw data

STARLINK-313811 59469U 24068Q   26264.33950690 -.00000468  00000+0 -74740-5 0  99942 59469  43.0030   6.2310 0001168 269.4101  90.6617 15.27590293138482

JSON: /api/v1/satellites/59469 · /tle

For live sub-satellite position, see the globe view (requires WebGL).

§ Visibility from observer

Set your observer location to see the next 7 days of passes ≥ 10°. The values pass through the URL so the page stays shareable.

No JS? Fill the form by hand. The geolocation button needs JavaScript.